ACA46 CYHZ-CYQM

Flight info

Callsign ACA46
Flight time 0h 25m
Altitude 12000
Route KELNO
Aircraft A321/M-SDE3FGHIRWY/LB1

Departure

Time 2026-04-28 00:27
Airport Halifax / Stanfield International Airport (CYHZ)

Arrival

Time 2026-04-28 00:52
Airport Greater Moncton Roméo LeBlanc International Airport (CYQM)
Time Latitude Longitude Altitude Speed Heading
2026-04-28 00:01 44.88804 -63.51432 452 ft 0 kts 260°
2026-04-28 00:15 44.88805 -63.51428 451 ft 3 kts 260°
2026-04-28 00:15 44.88809 -63.51392 448 ft 4 kts 260°
2026-04-28 00:16 44.88814 -63.51354 452 ft 4 kts 260°
2026-04-28 00:16 44.88819 -63.51317 452 ft 4 kts 260°
2026-04-28 00:16 44.88820 -63.51307 452 ft 0 kts 260°
2026-04-28 00:18 44.88824 -63.51322 452 ft 6 kts 302°
2026-04-28 00:18 44.88911 -63.51329 452 ft 15 kts 354°
2026-04-28 00:18 44.89001 -63.51376 452 ft 14 kts 307°
2026-04-28 00:19 44.89056 -63.51486 452 ft 13 kts 305°
2026-04-28 00:19 44.89108 -63.51591 452 ft 13 kts 305°
2026-04-28 00:19 44.89158 -63.51690 450 ft 12 kts 305°
2026-04-28 00:19 44.89207 -63.51788 451 ft 12 kts 305°
2026-04-28 00:20 44.89266 -63.51847 452 ft 9 kts 11°
2026-04-28 00:20 44.89289 -63.51828 452 ft 0 kts 37°
2026-04-28 00:23 44.89303 -63.51815 452 ft 10 kts 32°
2026-04-28 00:24 44.89363 -63.51745 453 ft 10 kts 70°
2026-04-28 00:24 44.89354 -63.51705 451 ft 0 kts 123°
2026-04-28 00:26 44.89340 -63.51675 453 ft 20 kts 124°
2026-04-28 00:26 44.89088 -63.51176 449 ft 101 kts 126°
2026-04-28 00:26 44.88581 -63.50169 590 ft 142 kts 126°
2026-04-28 00:27 44.88024 -63.49062 1362 ft 137 kts 127°
2026-04-28 00:27 44.87452 -63.48000 2118 ft 136 kts 128°
2026-04-28 00:27 44.86854 -63.46896 2586 ft 151 kts 127°
2026-04-28 00:27 44.86176 -63.45639 2925 ft 172 kts 127°
2026-04-28 00:28 44.85409 -63.44213 3189 ft 193 kts 126°
2026-04-28 00:28 44.84553 -63.42630 3421 ft 211 kts 128°
2026-04-28 00:28 44.83479 -63.41179 3841 ft 219 kts 146°
2026-04-28 00:28 44.82001 -63.40642 4298 ft 226 kts 180°
2026-04-28 00:29 44.80529 -63.41344 4763 ft 232 kts 212°
2026-04-28 00:29 44.79248 -63.42731 5249 ft 233 kts 218°
2026-04-28 00:29 44.77976 -63.44166 5716 ft 236 kts 218°
2026-04-28 00:29 44.76705 -63.45648 6142 ft 240 kts 221°
2026-04-28 00:30 44.75445 -63.47376 6321 ft 267 kts 229°
2026-04-28 00:30 44.74508 -63.49680 7020 ft 277 kts 256°
2026-04-28 00:30 44.74423 -63.52375 7906 ft 279 kts 283°
2026-04-28 00:30 44.75027 -63.54964 8863 ft 280 kts 293°
2026-04-28 00:31 44.75757 -63.57521 9828 ft 283 kts 294°
2026-04-28 00:31 44.76522 -63.60146 10450 ft 301 kts 294°
2026-04-28 00:31 44.77342 -63.62932 10769 ft 324 kts 294°
2026-04-28 00:31 44.78247 -63.65964 11042 ft 348 kts 294°
2026-04-28 00:32 44.79220 -63.69203 11294 ft 370 kts 294°
2026-04-28 00:32 44.80232 -63.72587 11809 ft 379 kts 294°
2026-04-28 00:32 44.81260 -63.76015 11967 ft 380 kts 294°
2026-04-28 00:32 44.82313 -63.79440 12003 ft 386 kts 298°
2026-04-28 00:33 44.83894 -63.82522 12003 ft 392 kts 316°
2026-04-28 00:33 44.86079 -63.84807 12004 ft 392 kts 329°
2026-04-28 00:33 44.88376 -63.86785 12006 ft 392 kts 329°
2026-04-28 00:33 44.90742 -63.88802 11997 ft 392 kts 329°
2026-04-28 00:34 44.93043 -63.90762 12001 ft 392 kts 329°
2026-04-28 00:34 44.95376 -63.92756 12000 ft 391 kts 329°
2026-04-28 00:34 44.97706 -63.94754 11994 ft 392 kts 329°
2026-04-28 00:34 45.00037 -63.96760 12001 ft 392 kts 329°
2026-04-28 00:35 45.02361 -63.98765 11992 ft 391 kts 329°
2026-04-28 00:35 45.04683 -64.00773 11990 ft 391 kts 329°
2026-04-28 00:35 45.07001 -64.02776 11986 ft 391 kts 329°
2026-04-28 00:35 45.09325 -64.04784 11989 ft 391 kts 329°
2026-04-28 00:36 45.11618 -64.06767 11987 ft 391 kts 329°
2026-04-28 00:36 45.13943 -64.08777 11980 ft 391 kts 329°
2026-04-28 00:36 45.16268 -64.10788 11974 ft 392 kts 329°
2026-04-28 00:36 45.18594 -64.12800 11976 ft 392 kts 329°
2026-04-28 00:37 45.20918 -64.14816 11978 ft 391 kts 329°
2026-04-28 00:37 45.23238 -64.16835 11985 ft 391 kts 329°
2026-04-28 00:37 45.25557 -64.18850 11989 ft 391 kts 329°
2026-04-28 00:37 45.27875 -64.20865 11986 ft 391 kts 329°
2026-04-28 00:38 45.30191 -64.22883 11983 ft 390 kts 329°
2026-04-28 00:38 45.32475 -64.24874 11984 ft 390 kts 329°
2026-04-28 00:38 45.34784 -64.26889 11971 ft 390 kts 329°
2026-04-28 00:38 45.37097 -64.28912 11983 ft 390 kts 329°
2026-04-28 00:39 45.39408 -64.30939 11981 ft 390 kts 329°
2026-04-28 00:39 45.41717 -64.32968 11979 ft 390 kts 329°
2026-04-28 00:39 45.44027 -64.34997 11963 ft 390 kts 330°
2026-04-28 00:39 45.46335 -64.37021 11968 ft 389 kts 330°
2026-04-28 00:40 45.48641 -64.39045 11862 ft 389 kts 330°
2026-04-28 00:40 45.50922 -64.41051 11394 ft 380 kts 330°
2026-04-28 00:40 45.53118 -64.42987 11252 ft 362 kts 330°
2026-04-28 00:40 45.55183 -64.44807 11132 ft 345 kts 330°
2026-04-28 00:41 45.57179 -64.46565 11006 ft 329 kts 330°
2026-04-28 00:41 45.59085 -64.48244 10880 ft 315 kts 330°
2026-04-28 00:41 45.60906 -64.49851 10760 ft 301 kts 330°
2026-04-28 00:41 45.62643 -64.51382 10609 ft 286 kts 330°
2026-04-28 00:42 45.64312 -64.52856 10234 ft 280 kts 330°
2026-04-28 00:42 45.65962 -64.54311 9966 ft 278 kts 330°
2026-04-28 00:42 45.67591 -64.55752 9817 ft 274 kts 330°
2026-04-28 00:42 45.68662 -64.56702 9730 ft 273 kts 330°
2026-04-28 00:43 45.70792 -64.58592 9551 ft 272 kts 330°
2026-04-28 00:43 45.72395 -64.60015 9419 ft 271 kts 330°
2026-04-28 00:43 45.73998 -64.61442 9119 ft 271 kts 330°
2026-04-28 00:43 45.75599 -64.62871 8652 ft 271 kts 329°
2026-04-28 00:44 45.77199 -64.64293 8242 ft 269 kts 329°
2026-04-28 00:44 45.78789 -64.65705 7799 ft 268 kts 329°
2026-04-28 00:44 45.79832 -64.66631 7534 ft 267 kts 329°
2026-04-28 00:44 45.81413 -64.68036 7121 ft 265 kts 328°
2026-04-28 00:45 45.82972 -64.69427 6719 ft 263 kts 328°
2026-04-28 00:45 45.84527 -64.70814 6259 ft 263 kts 328°
2026-04-28 00:45 45.86077 -64.72197 5833 ft 261 kts 328°
2026-04-28 00:45 45.88078 -64.73984 5564 ft 249 kts 328°
2026-04-28 00:46 45.89057 -64.74856 5499 ft 241 kts 328°
2026-04-28 00:46 45.90447 -64.76096 5380 ft 229 kts 328°
2026-04-28 00:46 45.91746 -64.77276 5289 ft 219 kts 324°
2026-04-28 00:46 45.92846 -64.78743 4959 ft 220 kts 313°
2026-04-28 00:47 45.93897 -64.80401 4423 ft 229 kts 312°
2026-04-28 00:47 45.94979 -64.82110 3936 ft 232 kts 312°
2026-04-28 00:47 45.96061 -64.83814 3621 ft 225 kts 312°
2026-04-28 00:47 45.97085 -64.85424 3561 ft 213 kts 312°
2026-04-28 00:48 45.98153 -64.86862 3480 ft 210 kts 331°
2026-04-28 00:48 45.99563 -64.87138 3274 ft 209 kts 16°
2026-04-28 00:48 46.00690 -64.85916 3074 ft 205 kts 62°
2026-04-28 00:48 46.01174 -64.84088 3001 ft 193 kts 73°
2026-04-28 00:49 46.01668 -64.82309 3002 ft 191 kts 64°
2026-04-28 00:49 46.02386 -64.80710 2751 ft 191 kts 52°
2026-04-28 00:49 46.03279 -64.79307 2312 ft 187 kts 49°
2026-04-28 00:49 46.04176 -64.77955 2028 ft 186 kts 47°
2026-04-28 00:50 46.05079 -64.76712 1779 ft 170 kts 45°
2026-04-28 00:50 46.05899 -64.75622 1553 ft 152 kts 46°
2026-04-28 00:50 46.06645 -64.74637 1343 ft 141 kts 46°
2026-04-28 00:50 46.07351 -64.73706 1162 ft 135 kts 46°
2026-04-28 00:51 46.08031 -64.72811 970 ft 133 kts 45°
2026-04-28 00:51 46.08707 -64.71921 792 ft 131 kts 45°
2026-04-28 00:51 46.09375 -64.71047 634 ft 130 kts 44°
2026-04-28 00:51 46.10042 -64.70176 428 ft 129 kts 44°
2026-04-28 00:52 46.10703 -64.69299 253 ft 128 kts 42°
2026-04-28 00:52 46.11319 -64.68479 209 ft 102 kts 43°
2026-04-28 00:52 46.11673 -64.68012 208 ft 57 kts 43°
2026-04-28 00:52 46.11838 -64.67840 205 ft 19 kts 352°
2026-04-28 00:53 46.11918 -64.67964 203 ft 16 kts 281°
2026-04-28 00:53 46.11862 -64.68091 206 ft 15 kts 223°
2026-04-28 00:53 46.11786 -64.68191 205 ft 15 kts 223°
2026-04-28 00:53 46.11713 -64.68287 210 ft 14 kts 223°
2026-04-28 00:54 46.11638 -64.68387 204 ft 15 kts 225°
2026-04-28 00:54 46.11654 -64.68501 200 ft 11 kts 283°
2026-04-28 00:54 46.11614 -64.68580 212 ft 10 kts 211°
2026-04-28 00:54 46.11548 -64.68649 210 ft 9 kts 256°
2026-04-28 00:55 46.11578 -64.68711 205 ft 7 kts 315°
2026-04-28 00:55 46.11582 -64.68716 205 ft 0 kts 315°